Year,Month,Day,Hour,Minute,Value (Times are PST for temperature in C)
2018,09,29,00,00,15.00
2018,09,29,00,01,15.00
2018,09,29,00,02,15.00
2018,09,29,00,03,15.00
2018,09,29,00,04,15.00
2018,09,29,00,05,15.00
2018,09,29,00,06,15.00
2018,09,29,00,07,15.00
2018,09,29,00,08,15.00
2018,09,29,00,09,15.00
2018,09,29,00,10,15.00
2018,09,29,00,11,15.00
2018,09,29,00,12,15.00
2018,09,29,00,13,15.00
2018,09,29,00,14,15.00
2018,09,29,00,15,15.00
2018,09,29,00,16,15.00
2018,09,29,00,17,15.00
2018,09,29,00,18,15.00
2018,09,29,00,19,15.00
2018,09,29,00,20,14.90
2018,09,29,00,21,14.90
2018,09,29,00,22,14.80
2018,09,29,00,23,14.80
2018,09,29,00,24,14.90
2018,09,29,00,25,15.00
2018,09,29,00,26,15.00
2018,09,29,00,27,15.00
2018,09,29,00,28,15.00
2018,09,29,00,29,14.90
2018,09,29,00,30,14.90
2018,09,29,00,31,14.80
2018,09,29,00,32,14.80
2018,09,29,00,33,14.80
2018,09,29,00,34,14.80
2018,09,29,00,35,14.80
2018,09,29,00,36,14.80
2018,09,29,00,37,14.80
2018,09,29,00,38,14.80
2018,09,29,00,39,14.80
2018,09,29,00,40,14.80
2018,09,29,00,41,14.80
2018,09,29,00,42,14.80
2018,09,29,00,43,14.80
2018,09,29,00,44,14.80
2018,09,29,00,45,14.80
2018,09,29,00,46,14.80
2018,09,29,00,47,14.80
2018,09,29,00,48,14.70
2018,09,29,00,49,14.70
2018,09,29,00,50,14.60
2018,09,29,00,51,14.60
2018,09,29,00,52,14.50
2018,09,29,00,53,14.50
2018,09,29,00,54,14.50
2018,09,29,00,55,14.50
2018,09,29,00,56,14.50
2018,09,29,00,57,14.60
2018,09,29,00,58,14.60
2018,09,29,00,59,14.60
2018,09,29,01,00,14.70
2018,09,29,01,01,14.70
2018,09,29,01,02,14.80
2018,09,29,01,03,14.90
2018,09,29,01,04,15.00
2018,09,29,01,05,15.00
2018,09,29,01,06,15.00
2018,09,29,01,07,15.00
2018,09,29,01,08,15.00
2018,09,29,01,09,15.00
2018,09,29,01,10,15.00
2018,09,29,01,11,15.00
2018,09,29,01,12,15.20
2018,09,29,01,13,15.30
2018,09,29,01,14,15.40
2018,09,29,01,15,15.50
2018,09,29,01,16,15.60
2018,09,29,01,17,15.70
2018,09,29,01,18,15.80
2018,09,29,01,19,15.90
2018,09,29,01,20,15.90
2018,09,29,01,21,15.90
2018,09,29,01,22,15.90
2018,09,29,01,23,15.90
2018,09,29,01,24,15.90
2018,09,29,01,25,15.90
2018,09,29,01,26,15.90
2018,09,29,01,27,15.80
2018,09,29,01,28,15.80
2018,09,29,01,29,15.70
2018,09,29,01,30,15.70
2018,09,29,01,31,15.70
2018,09,29,01,32,15.60
2018,09,29,01,33,15.60
2018,09,29,01,34,15.60
2018,09,29,01,35,15.50
2018,09,29,01,36,15.50
2018,09,29,01,37,15.40
2018,09,29,01,38,15.30
2018,09,29,01,39,15.30
2018,09,29,01,40,15.20
2018,09,29,01,41,15.20
2018,09,29,01,42,15.00
2018,09,29,01,43,15.00
2018,09,29,01,44,15.00
2018,09,29,01,45,15.00
2018,09,29,01,46,15.00
2018,09,29,01,47,15.00
2018,09,29,01,48,15.00
2018,09,29,01,49,15.00
2018,09,29,01,50,15.00
2018,09,29,01,51,15.00
2018,09,29,01,52,15.00
2018,09,29,01,53,15.00
2018,09,29,01,54,15.00
2018,09,29,01,55,15.00
2018,09,29,01,56,15.10
2018,09,29,01,57,15.10
2018,09,29,01,58,15.00
2018,09,29,01,59,15.00
2018,09,29,02,00,15.00
2018,09,29,02,01,15.00
2018,09,29,02,02,15.00
2018,09,29,02,03,15.00
2018,09,29,02,04,14.90
2018,09,29,02,05,14.80
2018,09,29,02,06,14.90
2018,09,29,02,07,14.90
2018,09,29,02,08,14.90
2018,09,29,02,09,14.90
2018,09,29,02,10,14.80
2018,09,29,02,11,14.80
2018,09,29,02,12,14.80
2018,09,29,02,13,14.80
2018,09,29,02,14,14.80
2018,09,29,02,15,14.80
2018,09,29,02,16,14.90
2018,09,29,02,17,14.90
2018,09,29,02,18,15.00
2018,09,29,02,19,15.00
2018,09,29,02,20,15.00
2018,09,29,02,21,15.00
2018,09,29,02,22,15.00
2018,09,29,02,23,15.00
2018,09,29,02,24,15.00
2018,09,29,02,25,15.00
2018,09,29,02,26,14.80
2018,09,29,02,27,14.70
2018,09,29,02,28,14.60
2018,09,29,02,29,14.60
2018,09,29,02,30,14.60
2018,09,29,02,31,14.60
2018,09,29,02,32,14.70
2018,09,29,02,33,14.70
2018,09,29,02,34,14.80
2018,09,29,02,35,14.90
2018,09,29,02,36,15.00
2018,09,29,02,37,15.00
2018,09,29,02,38,15.00
2018,09,29,02,39,15.00
2018,09,29,02,40,14.90
2018,09,29,02,41,14.90
2018,09,29,02,42,15.00
2018,09,29,02,43,15.00
2018,09,29,02,44,15.00
2018,09,29,02,45,15.00
2018,09,29,02,46,15.00
2018,09,29,02,47,15.00
2018,09,29,02,48,15.00
2018,09,29,02,49,15.00
2018,09,29,02,50,15.00
2018,09,29,02,51,15.00
2018,09,29,02,52,15.00
2018,09,29,02,53,15.00
2018,09,29,02,54,15.00
2018,09,29,02,55,15.00
2018,09,29,02,56,15.00
2018,09,29,02,57,15.00
2018,09,29,02,58,15.00
2018,09,29,02,59,15.00
2018,09,29,03,00,15.00
2018,09,29,03,01,15.00
2018,09,29,03,02,15.00
2018,09,29,03,03,15.00
2018,09,29,03,04,15.00
2018,09,29,03,05,15.00
2018,09,29,03,06,15.00
2018,09,29,03,07,15.00
2018,09,29,03,08,15.00
2018,09,29,03,09,15.00
2018,09,29,03,10,15.00
2018,09,29,03,11,15.00
2018,09,29,03,12,15.00
2018,09,29,03,13,15.00
2018,09,29,03,14,15.00
2018,09,29,03,15,15.00
2018,09,29,03,16,15.00
2018,09,29,03,17,15.00
2018,09,29,03,18,15.00
2018,09,29,03,19,15.00
2018,09,29,03,20,15.00
2018,09,29,03,21,15.00
2018,09,29,03,22,15.00
2018,09,29,03,23,15.00
2018,09,29,03,24,15.00
2018,09,29,03,25,15.00
2018,09,29,03,26,15.00
2018,09,29,03,27,15.00
2018,09,29,03,28,15.00
2018,09,29,03,29,14.90
2018,09,29,03,30,14.80
2018,09,29,03,31,14.80
2018,09,29,03,32,14.70
2018,09,29,03,33,14.60
2018,09,29,03,34,14.50
2018,09,29,03,35,14.40
2018,09,29,03,36,14.30
2018,09,29,03,37,14.20
2018,09,29,03,38,14.10
2018,09,29,03,39,14.00
2018,09,29,03,40,13.90
2018,09,29,03,41,13.90
2018,09,29,03,42,13.80
2018,09,29,03,43,13.80
2018,09,29,03,44,13.80
2018,09,29,03,45,13.80
2018,09,29,03,46,13.80
2018,09,29,03,47,13.80
2018,09,29,03,48,13.80
2018,09,29,03,49,13.80
2018,09,29,03,50,13.80
2018,09,29,03,51,13.80
2018,09,29,03,52,13.80
2018,09,29,03,53,13.80
2018,09,29,03,54,13.70
2018,09,29,03,55,13.70
2018,09,29,03,56,13.70
2018,09,29,03,57,13.60
2018,09,29,03,58,13.70
2018,09,29,03,59,13.70
2018,09,29,04,00,13.70
2018,09,29,04,01,13.70
2018,09,29,04,02,13.80
2018,09,29,04,03,13.80
2018,09,29,04,04,13.80
2018,09,29,04,05,13.70
2018,09,29,04,06,13.50
2018,09,29,04,07,13.40
2018,09,29,04,08,13.30
2018,09,29,04,09,13.30
2018,09,29,04,10,13.30
2018,09,29,04,11,13.30
2018,09,29,04,12,13.30
2018,09,29,04,13,13.30
2018,09,29,04,14,13.50
2018,09,29,04,15,13.60
2018,09,29,04,16,13.70
2018,09,29,04,17,13.80
2018,09,29,04,18,13.90
2018,09,29,04,19,14.00
2018,09,29,04,20,14.00
2018,09,29,04,21,14.10
2018,09,29,04,22,14.10
2018,09,29,04,23,14.10
2018,09,29,04,24,14.20
2018,09,29,04,25,14.20
2018,09,29,04,26,14.20
2018,09,29,04,27,14.20
2018,09,29,04,28,14.20
2018,09,29,04,29,14.10
2018,09,29,04,30,14.10
2018,09,29,04,31,14.00
2018,09,29,04,32,13.90
2018,09,29,04,33,13.80
2018,09,29,04,34,13.80
2018,09,29,04,35,13.70
2018,09,29,04,36,13.70
2018,09,29,04,37,13.80
2018,09,29,04,38,13.80
2018,09,29,04,39,13.90
2018,09,29,04,40,13.90
2018,09,29,04,41,14.00
2018,09,29,04,42,14.00
2018,09,29,04,43,14.10
2018,09,29,04,44,14.10
2018,09,29,04,45,14.10
2018,09,29,04,46,14.10
2018,09,29,04,47,14.10
2018,09,29,04,48,14.10
2018,09,29,04,49,14.10
2018,09,29,04,50,14.10
2018,09,29,04,51,14.10
2018,09,29,04,52,14.10
2018,09,29,04,53,14.10
2018,09,29,04,54,14.10
2018,09,29,04,55,14.20
2018,09,29,04,56,14.20
2018,09,29,04,57,14.20
2018,09,29,04,58,14.20
2018,09,29,04,59,14.20
2018,09,29,05,00,14.20
2018,09,29,05,01,14.20
2018,09,29,05,02,14.20
2018,09,29,05,03,14.20
2018,09,29,05,04,14.30
2018,09,29,05,05,14.30
2018,09,29,05,06,14.30
2018,09,29,05,07,14.30
2018,09,29,05,08,14.30
2018,09,29,05,09,14.30
2018,09,29,05,10,14.30
2018,09,29,05,11,14.30
2018,09,29,05,12,14.30
2018,09,29,05,13,14.30
2018,09,29,05,14,14.30
2018,09,29,05,15,14.30
2018,09,29,05,16,14.20
2018,09,29,05,17,14.20
2018,09,29,05,18,14.20
2018,09,29,05,19,14.30
2018,09,29,05,20,14.30
2018,09,29,05,21,14.30
2018,09,29,05,22,14.30
2018,09,29,05,23,14.40
2018,09,29,05,24,14.40
2018,09,29,05,25,14.40
2018,09,29,05,26,14.40
2018,09,29,05,27,14.40
2018,09,29,05,28,14.40
2018,09,29,05,29,14.50
2018,09,29,05,30,14.50
2018,09,29,05,31,14.50
2018,09,29,05,32,14.60
2018,09,29,05,33,14.60
2018,09,29,05,34,14.60
2018,09,29,05,35,14.60
2018,09,29,05,36,14.60
2018,09,29,05,37,14.60
2018,09,29,05,38,14.60
2018,09,29,05,39,14.50
2018,09,29,05,40,14.50
2018,09,29,05,41,14.50
2018,09,29,05,42,14.40
2018,09,29,05,43,14.40
2018,09,29,05,44,14.40
2018,09,29,05,45,14.30
2018,09,29,05,46,14.30
2018,09,29,05,47,14.30
2018,09,29,05,48,14.30
2018,09,29,05,49,14.30
2018,09,29,05,50,14.30
2018,09,29,05,51,14.30
2018,09,29,05,52,14.30
2018,09,29,05,53,14.30
2018,09,29,05,54,14.30
2018,09,29,05,55,14.40
2018,09,29,05,56,14.40
2018,09,29,05,57,14.40
2018,09,29,05,58,14.40
2018,09,29,05,59,14.40
2018,09,29,06,00,14.50
2018,09,29,06,01,14.60
2018,09,29,06,02,14.60
2018,09,29,06,03,14.70
2018,09,29,06,04,14.70
2018,09,29,06,05,14.80
2018,09,29,06,06,14.80
2018,09,29,06,07,14.80
2018,09,29,06,08,14.80
2018,09,29,06,09,14.90
2018,09,29,06,10,14.80
2018,09,29,06,11,14.80
2018,09,29,06,12,14.80
2018,09,29,06,13,14.70
2018,09,29,06,14,14.70
2018,09,29,06,15,14.60
2018,09,29,06,16,14.50
2018,09,29,06,17,14.40
2018,09,29,06,18,14.40
2018,09,29,06,19,14.30
2018,09,29,06,20,14.30
2018,09,29,06,21,14.20
2018,09,29,06,22,14.20
2018,09,29,06,23,14.10
2018,09,29,06,24,14.10
2018,09,29,06,25,14.00
2018,09,29,06,26,13.90
2018,09,29,06,27,13.90
2018,09,29,06,28,13.80
2018,09,29,06,29,13.80
2018,09,29,06,30,13.80
2018,09,29,06,31,13.80
2018,09,29,06,32,13.90
2018,09,29,06,33,14.00
2018,09,29,06,34,14.00
2018,09,29,06,35,14.10
2018,09,29,06,36,14.20
2018,09,29,06,37,14.30
2018,09,29,06,38,14.40
2018,09,29,06,39,14.40
2018,09,29,06,40,14.50
2018,09,29,06,41,14.50
2018,09,29,06,42,14.50
2018,09,29,06,43,14.50
2018,09,29,06,44,14.50
2018,09,29,06,45,14.40
2018,09,29,06,46,14.40
2018,09,29,06,47,14.40
2018,09,29,06,48,14.30
2018,09,29,06,49,14.20
2018,09,29,06,50,14.20
2018,09,29,06,51,14.10
2018,09,29,06,52,14.00
2018,09,29,06,53,13.90
2018,09,29,06,54,13.80
2018,09,29,06,55,13.80
2018,09,29,06,56,13.70
2018,09,29,06,57,13.70
2018,09,29,06,58,13.60
2018,09,29,06,59,13.60
2018,09,29,07,00,13.60
2018,09,29,07,01,13.60
2018,09,29,07,02,13.60
2018,09,29,07,03,13.60
2018,09,29,07,04,13.60
2018,09,29,07,05,13.70
2018,09,29,07,06,13.70
2018,09,29,07,07,13.70
2018,09,29,07,08,13.70
2018,09,29,07,09,13.70
2018,09,29,07,10,13.70
2018,09,29,07,11,13.70
2018,09,29,07,12,13.60
2018,09,29,07,13,13.60
2018,09,29,07,14,13.60
2018,09,29,07,15,13.50
2018,09,29,07,16,13.50
2018,09,29,07,17,13.50
2018,09,29,07,18,13.40
2018,09,29,07,19,13.40
2018,09,29,07,20,13.40
2018,09,29,07,21,13.40
2018,09,29,07,22,13.30
2018,09,29,07,23,13.30
2018,09,29,07,24,13.30
2018,09,29,07,25,13.30
2018,09,29,07,26,13.20
2018,09,29,07,27,13.30
2018,09,29,07,28,13.30
2018,09,29,07,29,13.30
2018,09,29,07,30,13.30
2018,09,29,07,31,13.30
2018,09,29,07,32,13.30
2018,09,29,07,33,13.40
2018,09,29,07,34,13.40
2018,09,29,07,35,13.40
2018,09,29,07,36,13.40
2018,09,29,07,37,13.40
2018,09,29,07,38,13.40
2018,09,29,07,39,13.40
2018,09,29,07,40,13.40
2018,09,29,07,41,13.40
2018,09,29,07,42,13.40
2018,09,29,07,43,13.40
2018,09,29,07,44,13.50
2018,09,29,07,45,13.50
2018,09,29,07,46,13.60
2018,09,29,07,47,13.60
2018,09,29,07,48,13.70
2018,09,29,07,49,13.70
2018,09,29,07,50,13.80
2018,09,29,07,51,13.80
2018,09,29,07,52,13.90
2018,09,29,07,53,13.90
2018,09,29,07,54,13.90
2018,09,29,07,55,13.90
2018,09,29,07,56,13.90
2018,09,29,07,57,13.90
2018,09,29,07,58,13.90
2018,09,29,07,59,13.90
2018,09,29,08,00,13.90
2018,09,29,08,01,13.90
2018,09,29,08,02,13.90
2018,09,29,08,03,14.00
2018,09,29,08,04,14.00
2018,09,29,08,05,14.00
2018,09,29,08,06,14.10
2018,09,29,08,07,14.10
2018,09,29,08,08,14.10
2018,09,29,08,09,14.20
2018,09,29,08,10,14.30
2018,09,29,08,11,14.30
2018,09,29,08,12,14.40
2018,09,29,08,13,14.40
2018,09,29,08,14,14.50
2018,09,29,08,15,14.50
2018,09,29,08,16,14.60
2018,09,29,08,17,14.60
2018,09,29,08,18,14.60
2018,09,29,08,19,14.60
2018,09,29,08,20,14.70
2018,09,29,08,21,14.70
2018,09,29,08,22,14.70
2018,09,29,08,23,14.70
2018,09,29,08,24,14.70
2018,09,29,08,25,14.70
2018,09,29,08,26,14.80
2018,09,29,08,27,14.80
2018,09,29,08,28,14.80
2018,09,29,08,29,14.90
2018,09,29,08,30,14.90
2018,09,29,08,31,15.00
2018,09,29,08,32,15.00
2018,09,29,08,33,15.00
2018,09,29,08,34,15.00
2018,09,29,08,35,15.00
2018,09,29,08,36,15.00
2018,09,29,08,37,15.00
2018,09,29,08,38,15.00
2018,09,29,08,39,15.00
2018,09,29,08,40,15.10
2018,09,29,08,41,15.20
2018,09,29,08,42,15.20
2018,09,29,08,43,15.20
2018,09,29,08,44,15.30
2018,09,29,08,45,15.30
2018,09,29,08,46,15.30
2018,09,29,08,47,15.30
2018,09,29,08,48,15.30
2018,09,29,08,49,15.30
2018,09,29,08,50,15.30
2018,09,29,08,51,15.20
2018,09,29,08,52,15.20
2018,09,29,08,53,15.20
2018,09,29,08,54,15.20
2018,09,29,08,55,15.20
2018,09,29,08,56,15.30
2018,09,29,08,57,15.30
2018,09,29,08,58,15.30
2018,09,29,08,59,15.30
2018,09,29,09,00,15.30
2018,09,29,09,01,15.30
2018,09,29,09,02,15.40
2018,09,29,09,03,15.40
2018,09,29,09,04,15.40
2018,09,29,09,05,15.40
2018,09,29,09,06,15.50
2018,09,29,09,07,15.50
2018,09,29,09,08,15.50
2018,09,29,09,09,15.60
2018,09,29,09,10,15.60
2018,09,29,09,11,15.60
2018,09,29,09,12,15.70
2018,09,29,09,13,15.70
2018,09,29,09,14,15.70
2018,09,29,09,15,15.80
2018,09,29,09,16,15.80
2018,09,29,09,17,15.80
2018,09,29,09,18,15.90
2018,09,29,09,19,15.90
2018,09,29,09,20,15.90
2018,09,29,09,21,15.90
2018,09,29,09,22,16.00
2018,09,29,09,23,16.00
2018,09,29,09,24,16.00
2018,09,29,09,25,16.10
2018,09,29,09,26,16.10
2018,09,29,09,27,16.10
2018,09,29,09,28,16.10
2018,09,29,09,29,16.10
2018,09,29,09,30,16.20
2018,09,29,09,31,16.20
2018,09,29,09,32,16.20
2018,09,29,09,33,16.20
2018,09,29,09,34,16.20
2018,09,29,09,35,16.20
2018,09,29,09,36,16.20
2018,09,29,09,37,16.20
2018,09,29,09,38,16.20
2018,09,29,09,39,16.20
2018,09,29,09,40,16.20
2018,09,29,09,41,16.20
2018,09,29,09,42,16.20
2018,09,29,09,43,16.20
2018,09,29,09,44,16.20
2018,09,29,09,45,16.20
2018,09,29,09,46,16.20
2018,09,29,09,47,16.20
2018,09,29,09,48,16.20
2018,09,29,09,49,16.20
2018,09,29,09,50,16.20
2018,09,29,09,51,16.20
2018,09,29,09,52,16.20
2018,09,29,09,53,16.30
2018,09,29,09,54,16.30
2018,09,29,09,55,16.30
2018,09,29,09,56,16.30
2018,09,29,09,57,16.30
2018,09,29,09,58,16.30
2018,09,29,09,59,16.30
2018,09,29,10,00,16.30
2018,09,29,10,01,16.40
2018,09,29,10,02,16.40
2018,09,29,10,03,16.40
2018,09,29,10,04,16.40
2018,09,29,10,05,16.40
2018,09,29,10,06,16.40
2018,09,29,10,07,16.40
2018,09,29,10,08,16.50
2018,09,29,10,09,16.50
2018,09,29,10,10,16.50
2018,09,29,10,11,16.60
2018,09,29,10,12,16.60
2018,09,29,10,13,16.60
2018,09,29,10,14,16.60
2018,09,29,10,15,16.60
2018,09,29,10,16,16.60
2018,09,29,10,17,16.60
2018,09,29,10,18,16.60
2018,09,29,10,19,16.60
2018,09,29,10,20,16.70
2018,09,29,10,21,16.70
2018,09,29,10,22,16.70
2018,09,29,10,23,16.70
2018,09,29,10,24,16.70
2018,09,29,10,25,16.70
2018,09,29,10,26,16.70
2018,09,29,10,27,16.70
2018,09,29,10,28,16.70
2018,09,29,10,29,16.70
2018,09,29,10,30,16.70
2018,09,29,10,31,16.70
2018,09,29,10,32,16.70
2018,09,29,10,33,16.70
2018,09,29,10,34,16.70
2018,09,29,10,35,16.70
2018,09,29,10,36,16.70
2018,09,29,10,37,16.70
2018,09,29,10,38,16.70
2018,09,29,10,39,16.70
2018,09,29,10,40,16.70
2018,09,29,10,41,16.70
2018,09,29,10,42,16.70
2018,09,29,10,43,16.70
2018,09,29,10,44,16.80
2018,09,29,10,45,16.80
2018,09,29,10,46,16.80
2018,09,29,10,47,16.80
2018,09,29,10,48,16.80
2018,09,29,10,49,16.80
2018,09,29,10,50,16.80
2018,09,29,10,51,16.80
2018,09,29,10,52,16.80
2018,09,29,10,53,16.80
2018,09,29,10,54,16.80
2018,09,29,10,55,16.80
2018,09,29,10,56,16.80
2018,09,29,10,57,16.80
2018,09,29,10,58,16.80
2018,09,29,10,59,16.80
2018,09,29,11,00,16.80
2018,09,29,11,01,16.80
2018,09,29,11,02,16.80
2018,09,29,11,03,16.80
2018,09,29,11,04,16.80
2018,09,29,11,05,16.70
2018,09,29,11,06,16.70
2018,09,29,11,07,16.70
2018,09,29,11,08,16.80
2018,09,29,11,09,16.80
2018,09,29,11,10,16.80
2018,09,29,11,11,16.80
2018,09,29,11,12,16.80
2018,09,29,11,13,16.80
2018,09,29,11,14,16.80
2018,09,29,11,15,16.90
2018,09,29,11,16,16.90
2018,09,29,11,17,16.90
2018,09,29,11,18,17.00
2018,09,29,11,19,17.00
2018,09,29,11,20,16.90
2018,09,29,11,21,16.90
2018,09,29,11,22,16.80
2018,09,29,11,23,16.70
2018,09,29,11,24,16.70
2018,09,29,11,25,16.70
2018,09,29,11,26,16.70
2018,09,29,11,27,16.70
2018,09,29,11,28,16.70
2018,09,29,11,29,16.70
2018,09,29,11,30,16.70
2018,09,29,11,31,16.60
2018,09,29,11,32,16.50
2018,09,29,11,33,16.40
2018,09,29,11,34,16.40
2018,09,29,11,35,16.40
2018,09,29,11,36,16.40
2018,09,29,11,37,16.40
2018,09,29,11,38,16.40
2018,09,29,11,39,16.40
2018,09,29,11,40,16.40
2018,09,29,11,41,16.40
2018,09,29,11,42,16.40
2018,09,29,11,43,16.40
2018,09,29,11,44,16.30
2018,09,29,11,45,16.30
2018,09,29,11,46,16.30
2018,09,29,11,47,16.30
2018,09,29,11,48,16.40
2018,09,29,11,49,16.40
2018,09,29,11,50,16.40
2018,09,29,11,51,16.50
2018,09,29,11,52,16.60
2018,09,29,11,53,16.60
2018,09,29,11,54,16.50
2018,09,29,11,55,16.50
2018,09,29,11,56,16.50
2018,09,29,11,57,16.50
2018,09,29,11,58,16.50
2018,09,29,11,59,16.50
2018,09,29,12,00,16.60
2018,09,29,12,01,16.60
2018,09,29,12,02,16.60
2018,09,29,12,03,16.70
2018,09,29,12,04,16.70
2018,09,29,12,05,16.80
2018,09,29,12,06,16.80
2018,09,29,12,07,16.80
2018,09,29,12,08,16.80
2018,09,29,12,09,16.80
2018,09,29,12,10,16.80
2018,09,29,12,11,16.80
2018,09,29,12,12,16.80
2018,09,29,12,13,16.80
2018,09,29,12,14,16.90
2018,09,29,12,15,16.90
2018,09,29,12,16,16.90
2018,09,29,12,17,16.90
2018,09,29,12,18,17.00
2018,09,29,12,19,17.00
2018,09,29,12,20,17.00
2018,09,29,12,21,17.00
2018,09,29,12,22,17.10
2018,09,29,12,23,17.10
2018,09,29,12,24,17.10
2018,09,29,12,25,17.10
2018,09,29,12,26,17.10
2018,09,29,12,27,17.00
2018,09,29,12,28,16.90
2018,09,29,12,29,16.80
2018,09,29,12,30,16.70
2018,09,29,12,31,16.60
2018,09,29,12,32,16.60
2018,09,29,12,33,16.60
2018,09,29,12,34,16.60
2018,09,29,12,35,16.60
2018,09,29,12,36,16.60
2018,09,29,12,37,16.60
2018,09,29,12,38,16.60
2018,09,29,12,39,16.60
2018,09,29,12,40,16.60
2018,09,29,12,41,16.70
2018,09,29,12,42,16.70
2018,09,29,12,43,16.70
2018,09,29,12,44,16.80
2018,09,29,12,45,16.80
2018,09,29,12,46,16.70
2018,09,29,12,47,16.70
2018,09,29,12,48,16.70
2018,09,29,12,49,16.70
2018,09,29,12,50,16.70
2018,09,29,12,51,16.70
2018,09,29,12,52,16.70
2018,09,29,12,53,16.60
2018,09,29,12,54,16.60
2018,09,29,12,55,16.50
2018,09,29,12,56,16.50
2018,09,29,12,57,16.40
2018,09,29,12,58,16.40
2018,09,29,12,59,16.40
2018,09,29,13,00,16.40
2018,09,29,13,01,16.40
2018,09,29,13,02,16.40
2018,09,29,13,03,16.40
2018,09,29,13,04,16.40
2018,09,29,13,05,16.30
2018,09,29,13,06,16.30
2018,09,29,13,07,16.30
2018,09,29,13,08,16.30
2018,09,29,13,09,16.30
2018,09,29,13,10,16.30
2018,09,29,13,11,16.30
2018,09,29,13,12,16.30
2018,09,29,13,13,16.30
2018,09,29,13,14,16.30
2018,09,29,13,15,16.20
2018,09,29,13,16,16.20
2018,09,29,13,17,16.20
2018,09,29,13,18,16.20
2018,09,29,13,19,16.20
2018,09,29,13,20,16.20
2018,09,29,13,21,16.20
2018,09,29,13,22,16.20
2018,09,29,13,23,16.20
2018,09,29,13,24,16.20
2018,09,29,13,25,16.20
2018,09,29,13,26,16.20
2018,09,29,13,27,16.20
2018,09,29,13,28,16.20
2018,09,29,13,29,16.20
2018,09,29,13,30,16.20
2018,09,29,13,31,16.20
2018,09,29,13,32,16.20
2018,09,29,13,33,16.20
2018,09,29,13,34,16.20
2018,09,29,13,35,16.20
2018,09,29,13,36,16.20
2018,09,29,13,37,16.20
2018,09,29,13,38,16.20
2018,09,29,13,39,16.20
2018,09,29,13,40,16.20
2018,09,29,13,41,16.20
2018,09,29,13,42,16.20
2018,09,29,13,43,16.20
2018,09,29,13,44,16.20
2018,09,29,13,45,16.20
2018,09,29,13,46,16.20
2018,09,29,13,47,16.20
2018,09,29,13,48,16.10
2018,09,29,13,49,16.10
2018,09,29,13,50,16.10
2018,09,29,13,51,16.10
2018,09,29,13,52,16.10
2018,09,29,13,53,16.10
2018,09,29,13,54,16.00
2018,09,29,13,55,16.00
2018,09,29,13,56,16.00
2018,09,29,13,57,16.00
2018,09,29,13,58,15.90
2018,09,29,13,59,15.90
2018,09,29,14,00,15.90
2018,09,29,14,01,15.90
2018,09,29,14,02,15.90
2018,09,29,14,03,15.90
2018,09,29,14,04,15.80
2018,09,29,14,05,15.80
2018,09,29,14,06,15.80
2018,09,29,14,07,15.80
2018,09,29,14,08,15.80
2018,09,29,14,09,15.80
2018,09,29,14,10,15.80
2018,09,29,14,11,15.80
2018,09,29,14,12,15.80
2018,09,29,14,13,15.80
2018,09,29,14,14,15.80
2018,09,29,14,15,15.80
2018,09,29,14,16,15.80
2018,09,29,14,17,15.80
2018,09,29,14,18,15.80
2018,09,29,14,19,15.80
2018,09,29,14,20,15.80
2018,09,29,14,21,15.80
2018,09,29,14,22,15.80
2018,09,29,14,23,15.90
2018,09,29,14,24,15.90
2018,09,29,14,25,15.90
2018,09,29,14,26,15.80
2018,09,29,14,27,15.80
2018,09,29,14,28,15.80
2018,09,29,14,29,15.80
2018,09,29,14,30,15.70
2018,09,29,14,31,15.70
2018,09,29,14,32,15.70
2018,09,29,14,33,15.70
2018,09,29,14,34,15.70
2018,09,29,14,35,15.70
2018,09,29,14,36,15.70
2018,09,29,14,37,15.70
2018,09,29,14,38,15.70
2018,09,29,14,39,15.60
2018,09,29,14,40,15.60
2018,09,29,14,41,15.60
2018,09,29,14,42,15.60
2018,09,29,14,43,15.60
2018,09,29,14,44,15.60
2018,09,29,14,45,15.70
2018,09,29,14,46,15.70
2018,09,29,14,47,15.70
2018,09,29,14,48,15.70
2018,09,29,14,49,15.70
2018,09,29,14,50,15.80
2018,09,29,14,51,15.80
2018,09,29,14,52,15.90
2018,09,29,14,53,15.90
2018,09,29,14,54,16.00
2018,09,29,14,55,16.00
2018,09,29,14,56,16.10
2018,09,29,14,57,16.10
2018,09,29,14,58,16.10
2018,09,29,14,59,16.10
2018,09,29,15,00,16.20
2018,09,29,15,01,16.20
2018,09,29,15,02,16.20
2018,09,29,15,03,16.20
2018,09,29,15,04,16.20
2018,09,29,15,05,16.10
2018,09,29,15,06,16.10
2018,09,29,15,07,16.00
2018,09,29,15,08,16.00
2018,09,29,15,09,15.90
2018,09,29,15,10,15.90
2018,09,29,15,11,15.80
2018,09,29,15,12,15.80
2018,09,29,15,13,15.80
2018,09,29,15,14,15.80
2018,09,29,15,15,15.70
2018,09,29,15,16,15.70
2018,09,29,15,17,15.70
2018,09,29,15,18,15.70
2018,09,29,15,19,15.70
2018,09,29,15,20,15.70
2018,09,29,15,21,15.70
2018,09,29,15,22,15.70
2018,09,29,15,23,15.70
2018,09,29,15,24,15.80
2018,09,29,15,25,15.80
2018,09,29,15,26,15.80
2018,09,29,15,27,15.80
2018,09,29,15,28,15.90
2018,09,29,15,29,15.90
2018,09,29,15,30,15.90
2018,09,29,15,31,16.00
2018,09,29,15,32,16.00
2018,09,29,15,33,16.10
2018,09,29,15,34,16.10
2018,09,29,15,35,16.10
2018,09,29,15,36,16.10
2018,09,29,15,37,16.20
2018,09,29,15,38,16.20
2018,09,29,15,39,16.20
2018,09,29,15,40,16.20
2018,09,29,15,41,16.30
2018,09,29,15,42,16.30
2018,09,29,15,43,16.30
2018,09,29,15,44,16.30
2018,09,29,15,45,16.30
2018,09,29,15,46,16.30
2018,09,29,15,47,16.20
2018,09,29,15,48,16.30
2018,09,29,15,49,16.30
2018,09,29,15,50,16.30
2018,09,29,15,51,16.40
2018,09,29,15,52,16.40
2018,09,29,15,53,16.40
2018,09,29,15,54,16.40
2018,09,29,15,55,16.50
2018,09,29,15,56,16.50
2018,09,29,15,57,16.60
2018,09,29,15,58,16.70
2018,09,29,15,59,16.70
2018,09,29,16,00,16.80
2018,09,29,16,01,16.80
2018,09,29,16,02,16.90
2018,09,29,16,03,16.90
2018,09,29,16,04,16.90
2018,09,29,16,05,16.90
2018,09,29,16,06,17.00
2018,09,29,16,07,17.10
2018,09,29,16,08,17.10
2018,09,29,16,09,17.10
2018,09,29,16,10,17.10
2018,09,29,16,11,17.20
2018,09,29,16,12,17.20
2018,09,29,16,13,17.20
2018,09,29,16,14,17.30
2018,09,29,16,15,17.30
2018,09,29,16,16,17.30
2018,09,29,16,17,17.40
2018,09,29,16,18,17.40
2018,09,29,16,19,17.40
2018,09,29,16,20,17.40
2018,09,29,16,21,17.50
2018,09,29,16,22,17.50
2018,09,29,16,23,17.50
2018,09,29,16,24,17.50
2018,09,29,16,25,17.50
2018,09,29,16,26,17.50
2018,09,29,16,27,17.50
2018,09,29,16,28,17.50
2018,09,29,16,29,17.50
2018,09,29,16,30,17.50
2018,09,29,16,31,17.40
2018,09,29,16,32,17.40
2018,09,29,16,33,17.40
2018,09,29,16,34,17.40
2018,09,29,16,35,17.40
2018,09,29,16,36,17.40
2018,09,29,16,37,17.40
2018,09,29,16,38,17.40
2018,09,29,16,39,17.40
2018,09,29,16,40,17.40
2018,09,29,16,41,17.40
2018,09,29,16,42,17.40
2018,09,29,16,43,17.40
2018,09,29,16,44,17.50
2018,09,29,16,45,17.50
2018,09,29,16,46,17.50
2018,09,29,16,47,17.40
2018,09,29,16,48,17.40
2018,09,29,16,49,17.40
2018,09,29,16,50,17.40
2018,09,29,16,51,17.40
2018,09,29,16,52,17.40
2018,09,29,16,53,17.40
2018,09,29,16,54,17.40
2018,09,29,16,55,17.40
2018,09,29,16,56,17.40
2018,09,29,16,57,17.40
2018,09,29,16,58,17.40
2018,09,29,16,59,17.40
2018,09,29,17,00,17.40
2018,09,29,17,01,17.40
2018,09,29,17,02,17.40
2018,09,29,17,03,17.40
2018,09,29,17,04,17.40
2018,09,29,17,05,17.40
2018,09,29,17,06,17.40
2018,09,29,17,07,17.40
2018,09,29,17,08,17.40
2018,09,29,17,09,17.40
2018,09,29,17,10,17.40
2018,09,29,17,11,17.40
2018,09,29,17,12,17.40
2018,09,29,17,13,17.40
2018,09,29,17,14,17.40
2018,09,29,17,15,17.40
2018,09,29,17,16,17.40
2018,09,29,17,17,17.40
2018,09,29,17,18,17.30
2018,09,29,17,19,17.30